ECMWFNIL_850_spd_000.txt.gz
Wind_Speed
4 4 4 3 4 4 4 3 4 5 5 6 6 6 8 8 8 9 10 11 12 12 12 12 12 12 12 13 13 13 14 13 13 12 11 10 11 13 15 18 19 19
4 5 5 3 2 3 3 1 4 6 5 6 6 7 8 7 7 9 11 12 12 12 12 12 12 12 13 13 14 15 15 14 13 12 11 12 13 15 18 19 20 19
6 6 5 3 2 2 4 5 6 6 4 5 6 7 7 7 8 10 12 12 13 13 12 12 12 12 13 13 14 15 15 15 13 12 12 13 15 17 19 18 18 17
7 6 6 5 5 6 7 7 5 4 5 5 6 8 8 9 10 11 12 13 13 14 13 13 13 13 14 14 15 15 15 15 14 12 12 13 15 17 17 17 16 16
8 7 6 6 6 7 7 5 4 5 6 7 8 9 10 11 11 12 12 13 14 14 14 13 13 13 14 15 16 15 15 14 13 13 13 14 16 16 16 16 16 17
8 8 7 6 6 6 7 6 5 7 8 9 10 10 11 11 12 12 13 14 14 14 14 15 15 15 15 16 17 17 17 15 14 14 15 15 16 15 15 17 17 19
8 8 7 7 6 5 6 6 8 9 10 10 11 11 12 12 11 12 12 14 15 15 16 17 17 17 17 17 17 18 18 17 16 16 16 16 16 16 16 17 18 19
8 8 8 7 6 7 7 7 9 10 10 11 11 11 12 12 12 13 12 14 15 16 17 18 18 18 17 18 18 19 19 18 17 16 17 17 17 17 18 18 19 19
9 9 9 8 8 7 7 8 9 10 12 12 11 10 11 13 14 14 14 14 16 17 18 18 18 19 19 19 18 19 20 18 17 17 18 18 18 19 20 20 20 19
9 9 10 9 8 8 8 9 8 9 9 9 10 12 13 13 13 13 14 16 18 18 18 19 19 21 22 20 19 19 20 20 20 19 19 19 19 20 22 22 21 20
9 9 10 9 9 9 9 9 10 10 9 8 10 12 13 12 12 14 16 17 18 18 19 20 21 22 24 23 21 20 21 22 22 22 21 19 20 22 24 24 22 21
10 9 10 10 11 11 10 10 11 12 10 9 10 11 13 13 14 16 17 17 18 19 20 20 21 22 24 25 23 20 21 23 22 21 21 21 22 24 24 23 23 23
12 11 11 12 12 12 11 11 11 11 10 11 12 12 13 14 14 15 15 17 19 19 20 21 21 20 22 24 23 19 18 21 20 19 19 21 24 25 24 23 24 25
12 12 13 13 13 13 12 12 12 13 13 13 13 13 13 13 13 15 17 18 18 19 20 20 20 19 20 22 21 18 16 18 19 18 17 20 25 25 24 23 25 26
14 13 15 15 14 13 12 12 13 13 13 13 13 15 14 13 13 16 18 18 17 17 17 18 18 18 18 17 17 16 16 16 18 19 19 21 25 26 25 26 26 27
16 16 17 15 14 13 12 12 12 12 14 14 14 16 16 13 13 15 16 15 15 16 16 15 17 17 15 14 14 15 16 15 16 18 20 21 24 25 26 28 29 29
18 18 18 16 14 13 12 12 12 13 14 14 14 16 16 14 13 14 14 15 15 14 14 16 19 19 17 16 15 13 14 15 16 19 21 21 22 24 26 28 30 31
19 19 18 16 14 13 12 13 14 14 14 14 14 16 15 14 14 14 16 16 14 12 15 18 19 19 18 18 18 16 14 16 18 19 21 22 24 26 27 26 28 31
20 19 18 15 14 13 14 14 14 14 13 14 15 15 16 15 15 16 16 16 14 14 17 19 18 18 19 20 21 20 18 18 20 22 23 23 24 25 26 27 26 29
20 20 18 16 14 14 15 15 14 14 14 15 16 16 17 16 15 16 17 16 17 17 18 19 21 22 22 23 23 21 19 20 22 25 25 24 23 22 24 27 26 27
20 19 17 15 15 15 16 15 14 14 15 16 17 18 18 17 17 17 18 17 17 19 19 20 22 23 23 24 24 21 20 20 22 23 24 24 23 20 21 24 25 24
19 18 16 15 15 16 16 15 16 17 16 16 17 19 19 19 19 19 19 18 17 19 21 19 20 22 23 24 24 22 21 20 20 20 21 22 23 20 20 22 22 23
18 17 16 16 16 17 16 17 18 17 15 15 17 18 18 19 20 19 19 19 17 17 19 19 21 22 22 23 23 21 20 19 18 17 18 21 22 20 19 19 20 23
17 17 16 16 17 17 16 17 18 16 16 18 20 18 17 19 19 19 20 21 18 16 17 20 22 21 20 22 22 19 18 17 16 16 18 20 22 20 18 18 19 20
16 17 18 18 18 18 17 16 18 19 20 22 22 19 17 19 20 20 21 21 18 14 14 17 19 17 18 21 20 16 16 15 15 17 19 20 21 20 19 19 19 19
17 18 20 20 19 18 17 15 17 19 20 20 19 17 18 19 21 20 20 18 17 15 15 17 17 17 17 19 18 15 14 14 14 16 18 20 20 21 22 21 20 19

ECMWFNIL_850_spd_006.txt.gz
Wind_Speed
10 8 8 9 10 10 10 10 10 10 11 11 11 11 11 12 11 10 11 11 9 6 5 4 3 3 4 4 4 3 3 4 4 5 6 6 5 5 6 7 8 8
10 9 9 9 9 9 9 9 9 8 9 9 9 9 10 10 10 9 9 9 8 8 7 5 4 4 5 5 5 5 5 6 7 7 8 8 8 8 8 9 10 10
11 10 9 8 8 8 8 9 8 8 8 8 7 7 7 7 7 7 7 7 9 11 10 7 6 6 6 5 5 6 7 9 10 10 11 11 11 10 10 11 12 12
12 10 8 8 8 8 8 8 8 7 7 7 6 6 5 5 6 6 7 8 10 11 10 9 8 8 8 7 7 8 9 10 11 11 12 12 12 12 12 13 14 14
12 10 9 9 8 9 9 8 7 6 6 6 5 4 3 4 7 8 8 9 10 11 11 10 9 9 9 9 10 10 10 11 12 12 14 14 14 14 14 15 16 16
14 12 10 9 9 9 9 7 5 5 5 5 5 4 3 4 6 7 7 7 8 10 11 10 10 10 10 10 10 10 10 11 12 13 14 15 15 15 15 16 17 18
16 13 11 10 10 10 9 7 5 5 5 6 5 4 4 5 6 6 6 7 8 8 9 9 9 10 9 8 9 10 11 12 12 14 15 16 16 17 17 17 19 20
16 13 12 11 10 10 10 8 7 6 7 6 5 5 6 7 8 8 8 8 7 8 9 9 10 10 8 8 10 11 12 12 13 15 18 19 19 19 19 18 19 21
18 14 12 12 11 12 11 9 8 8 7 7 6 6 8 9 10 10 10 9 9 10 11 10 10 9 9 10 11 12 13 14 16 18 19 20 21 20 19 18 19 21
20 16 14 13 12 13 13 11 9 9 8 7 6 7 9 10 11 11 11 11 11 11 10 9 9 10 11 12 12 13 15 16 17 18 18 19 18 17 16 16 18 19
21 17 15 13 13 14 14 11 9 9 9 8 8 8 8 9 11 12 12 11 12 11 9 9 10 12 13 14 15 16 16 16 16 16 16 17 16 14 14 15 16 17
23 19 15 14 13 14 13 11 9 9 9 9 9 9 10 12 13 13 12 12 12 12 11 11 12 14 15 16 16 15 14 14 15 15 15 16 15 14 14 14 15 16
24 19 16 14 12 12 12 10 9 9 10 11 11 12 14 15 14 13 13 13 12 11 11 12 13 16 16 14 12 12 12 13 14 14 15 16 16 15 15 15 16 16
23 19 17 15 11 11 11 10 9 10 11 12 14 16 16 15 13 14 14 12 10 10 11 12 14 16 15 13 12 11 12 13 14 15 16 17 18 18 17 17 17 17
23 19 18 16 13 11 10 10 10 10 11 13 15 16 16 14 14 15 13 10 9 10 11 11 13 14 14 13 13 12 12 14 15 16 17 19 19 20 20 20 19 19
22 19 18 17 15 13 11 11 11 11 11 13 14 15 14 13 13 13 12 10 9 10 11 11 11 12 12 13 13 12 13 15 17 18 18 19 19 20 21 21 21 20
21 18 20 20 16 13 12 12 12 12 13 14 15 14 13 12 12 12 11 10 10 11 12 12 12 12 12 12 12 13 14 17 19 19 19 19 19 20 21 21 21 21
20 18 23 22 17 14 13 13 13 14 15 16 16 15 13 12 11 11 11 11 11 13 13 14 15 14 13 13 14 14 16 18 20 20 19 19 20 20 21 20 20 19
18 18 24 22 17 16 15 14 15 16 17 18 17 14 13 13 13 12 12 13 14 15 15 16 17 16 15 15 16 16 17 18 20 19 19 19 20 21 21 19 17 16
19 21 24 20 17 18 18 17 17 17 18 19 17 15 14 14 14 14 14 14 16 17 17 18 18 18 17 17 17 18 18 19 19 19 18 19 21 22 20 18 16 16
21 24 23 20 18 19 21 21 19 18 19 19 18 16 15 15 15 15 15 15 16 18 19 20 19 19 18 18 18 18 19 20 20 21 21 21 22 22 20 18 17 16
23 25 23 22 21 21 23 23 21 20 19 20 19 18 16 16 15 15 15 15 16 18 20 21 19 18 19 19 20 21 22 23 24 24 23 21 21 21 20 18 17 17
27 26 24 24 22 23 24 24 22 21 20 20 21 21 19 18 16 15 16 18 18 18 19 20 19 18 19 21 23 24 24 25 25 24 23 20 20 22 22 19 17 17
29 27 25 24 22 23 23 23 24 23 22 22 23 22 21 19 18 18 20 21 19 18 19 19 18 17 19 22 24 23 22 23 23 23 22 22 22 24 23 20 18 18
32 28 23 21 21 22 23 24 24 24 23 23 23 23 23 23 23 22 22 22 20 20 19 18 18 18 18 20 21 21 22 22 22 22 24 25 24 24 23 21 20 20
35 28 21 18 18 20 24 26 26 26 26 25 24 25 27 27 26 23 21 20 19 19 18 18 18 17 16 17 19 21 22 23 23 25 26 24 23 23 23 22 21 21

ECMWFNIL_850_spd_009.txt.gz
Wind_Speed
17 17 17 18 19 19 18 17 17 16 15 14 12 12 11 11 10 9 8 7 7 7 8 7 7 7 8 7 7 6 6 6 6 6 6 5 6 7 7 8 9 10
19 19 20 20 20 19 18 17 16 15 14 13 12 12 12 12 12 10 9 8 8 7 6 6 6 7 8 8 8 8 8 8 7 7 7 7 7 8 9 10 10 11
22 22 22 22 21 18 17 16 16 15 14 13 13 13 14 14 13 12 10 9 8 6 5 6 7 8 8 9 9 9 9 10 9 9 9 9 9 10 11 11 12 13
25 24 23 22 20 17 16 17 17 15 14 14 13 13 13 13 12 11 9 8 6 6 6 8 9 9 9 10 10 11 11 11 10 10 10 10 10 11 12 13 14 15
28 26 23 21 19 18 18 18 17 16 14 13 12 12 12 11 10 8 7 6 5 6 7 9 9 10 10 10 10 10 10 10 9 9 10 10 11 12 13 14 15 16
30 28 25 22 20 19 19 18 17 16 14 12 12 13 12 10 8 6 5 5 5 5 6 7 8 8 8 8 8 8 7 7 7 8 10 11 12 13 14 15 17 17
33 30 26 23 21 20 19 17 16 15 14 13 13 13 11 9 7 6 5 5 4 4 4 6 7 6 6 7 7 6 6 7 8 10 12 13 14 15 15 16 18 18
35 31 27 24 21 20 18 17 16 15 14 14 14 13 11 9 7 6 5 5 4 4 4 5 5 6 6 7 7 7 8 10 11 12 13 15 16 16 16 17 17 17
37 32 28 23 19 17 16 15 16 16 15 14 14 13 11 9 8 7 6 5 5 5 5 4 5 6 7 8 9 10 11 11 12 12 14 15 15 15 15 16 16 16
38 34 27 20 15 14 14 15 17 17 16 15 14 13 11 10 9 8 7 7 6 6 6 5 6 7 8 10 11 12 13 13 12 12 13 13 13 13 14 14 15 15
40 33 25 18 15 15 16 18 20 19 17 16 15 14 12 11 10 8 8 8 7 6 7 8 8 9 11 12 12 13 14 13 11 11 11 11 11 11 12 14 15 15
39 32 27 23 20 17 17 20 21 19 18 17 15 14 13 12 11 10 9 8 8 8 9 10 10 12 12 12 13 14 13 11 10 10 10 10 11 12 13 15 16 17
39 34 32 30 23 18 18 21 21 20 19 18 16 15 14 13 11 10 10 9 9 9 10 11 12 13 13 13 13 13 12 11 11 11 11 12 13 15 16 17 18 18
39 36 34 29 22 18 20 22 22 21 21 19 16 15 14 13 12 11 11 11 10 10 10 10 12 13 13 12 11 11 11 12 12 13 13 14 15 17 18 18 19 19
37 38 31 23 20 20 21 24 23 22 21 19 17 16 14 13 12 12 12 12 12 12 11 10 10 10 10 9 9 10 11 12 13 14 15 16 17 18 18 19 19 20
40 39 27 17 22 24 23 23 22 22 22 20 17 16 15 14 13 13 13 13 13 14 13 11 10 9 9 8 8 9 11 12 14 15 16 17 18 19 19 19 20 21
42 36 22 16 23 28 25 22 21 22 22 20 18 17 15 15 14 14 15 14 14 14 14 13 12 11 10 9 9 10 12 14 16 17 17 18 19 19 19 20 22 22
33 27 19 17 24 30 27 22 21 22 22 21 20 18 16 16 16 16 15 14 14 14 14 13 13 13 12 12 12 13 14 16 18 19 19 20 20 20 21 23 24 24
28 25 21 21 26 30 28 23 22 23 23 22 21 19 18 18 17 17 16 14 13 13 13 13 14 13 13 14 15 16 17 18 20 21 22 22 22 23 24 24 25 25
33 29 25 25 27 29 29 27 26 25 24 22 22 21 21 21 19 18 17 15 13 13 13 14 14 14 15 16 17 19 20 21 23 24 24 24 24 26 26 25 25 25
35 28 27 27 25 27 31 31 29 27 25 23 23 23 23 22 20 19 17 16 15 14 16 16 16 15 17 18 19 20 21 23 24 25 26 26 27 27 27 26 25 24
33 28 29 27 23 27 33 32 29 28 26 25 25 25 24 23 21 19 17 16 16 18 20 19 17 17 18 19 21 21 22 23 25 26 27 28 27 27 28 27 25 24
34 33 32 26 24 29 32 30 27 28 28 28 28 27 25 24 22 20 18 17 18 20 21 21 20 19 19 20 20 20 20 21 23 25 26 26 26 26 27 27 26 25
37 38 30 24 26 30 30 26 25 27 29 30 30 28 25 24 22 20 19 19 21 22 24 25 23 21 21 21 20 19 18 19 21 23 24 25 25 26 27 27 27 26
39 39 26 22 28 31 28 25 25 27 29 30 30 28 26 24 23 22 22 23 25 27 27 25 21 20 21 21 20 19 19 19 20 22 23 24 24 26 27 28 27 25
42 39 27 24 27 27 25 25 26 29 32 31 30 28 28 27 26 25 25 26 29 30 27 21 17 18 20 20 19 19 19 19 20 22 23 23 25 27 27 26 25 24

ECMWFNIL_850_spd_015.txt.gz
Wind_Speed
29 29 28 27 25 23 21 19 18 18 17 17 16 15 14 13 12 12 10 9 9 9 10 9 7 7 7 7 8 8 9 9 10 9 8 8 7 7 7 7 8 9
31 30 30 28 26 24 21 19 18 17 17 16 15 14 14 13 13 12 10 8 9 9 10 9 8 8 8 9 9 10 10 11 11 10 10 9 9 8 8 8 9 10
33 33 31 29 27 24 21 19 18 17 16 16 15 14 14 14 14 12 10 8 9 10 10 10 9 10 10 10 10 11 11 11 11 12 12 11 11 10 9 9 10 11
35 34 33 30 27 24 22 20 19 18 17 16 16 15 15 14 14 12 10 10 10 11 11 11 11 11 11 11 11 11 12 12 12 13 13 13 12 11 10 10 10 11
36 35 34 31 28 26 24 22 20 18 18 17 17 16 16 15 14 13 12 12 12 12 13 13 12 12 13 12 12 12 12 12 13 13 14 13 12 11 10 10 11 11
37 37 35 33 30 28 25 22 20 19 18 18 18 17 17 16 15 14 14 14 13 14 15 14 14 14 13 13 12 13 13 12 13 13 13 12 11 11 10 11 12 12
39 38 37 35 32 29 26 23 21 20 19 18 18 18 17 17 16 15 15 15 15 15 16 16 16 15 14 13 14 14 13 13 13 13 13 12 11 11 11 12 13 13
40 39 38 36 34 31 28 26 24 22 20 19 18 18 18 17 16 15 16 16 16 17 17 18 17 16 15 14 14 14 14 13 13 13 12 12 12 12 12 12 13 13
40 39 39 38 37 35 31 28 26 23 21 20 19 18 19 18 16 15 16 18 18 19 19 20 19 17 16 15 15 14 14 13 13 13 13 13 13 13 12 12 12 13
40 40 42 42 40 38 34 31 28 25 23 22 19 19 19 17 15 15 17 19 20 21 21 21 20 18 16 15 15 15 15 14 13 14 14 14 14 13 13 12 12 13
42 44 46 45 43 40 36 34 31 28 26 23 21 20 19 15 15 16 18 20 22 22 22 22 20 18 16 16 16 15 15 15 15 15 15 15 14 13 13 12 12 13
48 50 49 47 46 44 41 38 35 32 29 26 24 23 19 15 17 20 20 23 24 23 23 22 20 18 17 16 17 16 16 16 16 16 16 15 15 13 12 13 13 14
49 52 52 51 50 47 44 41 38 35 32 30 29 26 22 20 22 24 23 25 26 25 24 23 20 19 19 18 18 17 18 18 18 18 17 16 15 14 13 13 13 14
49 51 53 55 54 50 48 44 40 37 36 34 31 29 27 26 26 27 27 27 28 27 25 24 22 21 21 20 19 18 18 19 18 18 17 16 15 14 13 13 13 15
51 49 50 55 56 52 48 43 40 38 37 35 32 30 29 28 27 29 30 29 29 29 28 25 24 24 22 20 19 18 18 18 18 17 16 16 14 13 13 14 15 16
50 48 47 51 53 49 46 44 41 40 40 38 33 30 27 27 28 32 33 32 31 31 30 28 27 25 23 21 19 18 18 18 17 17 16 15 14 14 15 17 18 18
47 46 45 46 49 49 51 52 47 44 44 40 34 28 25 26 32 36 36 34 33 33 32 30 29 26 23 21 19 18 18 18 18 17 16 16 16 17 18 19 20 21
44 44 43 44 46 49 52 56 54 52 50 43 36 32 29 31 38 40 37 36 35 34 33 32 30 27 24 22 21 20 20 20 20 19 18 19 19 20 21 22 24 24
41 42 42 42 44 46 48 52 55 57 55 48 43 39 36 38 43 42 39 39 37 34 34 33 31 28 25 24 23 22 22 22 22 21 21 21 22 22 23 24 26 27
38 39 40 41 42 44 46 49 52 55 55 50 46 44 41 41 43 41 40 40 37 35 35 34 32 29 26 25 24 22 22 23 23 23 22 22 23 24 26 27 28 29
35 37 39 40 41 42 44 46 49 52 54 48 45 46 43 39 40 42 42 40 37 35 35 34 32 30 27 26 24 22 22 23 24 25 24 24 24 25 27 28 27 25
32 34 37 38 39 41 42 44 47 51 52 46 43 45 41 37 40 43 42 39 37 35 35 34 33 30 28 26 24 22 22 24 25 26 27 27 25 24 27 27 24 21
29 31 34 35 37 39 39 41 44 47 45 40 40 43 39 35 39 43 41 38 36 34 34 34 32 30 29 27 24 23 24 26 26 28 30 28 22 21 25 24 21 20
26 28 31 33 34 35 36 38 41 42 38 35 39 42 38 34 38 42 40 36 34 34 34 33 31 31 30 28 26 26 26 28 28 29 31 28 23 23 24 22 19 19
23 26 28 30 31 32 33 36 38 37 35 33 36 39 37 35 38 41 38 35 33 33 33 31 30 29 29 29 29 29 29 30 31 31 32 29 25 23 21 19 20 21
22 24 27 28 29 29 31 33 35 35 33 31 33 35 34 33 36 38 35 33 32 31 31 30 28 28 29 29 30 31 32 33 31 29 29 26 21 19 19 19 21 22

ECMWFNIL_850_spd_021.txt.gz
Wind_Speed
29 29 27 26 25 23 21 20 20 19 17 16 14 12 11 12 12 13 13 14 13 11 11 11 10 12 12 11 12 11 9 8 7 6 6 6 5 5 5 5 5 5
30 30 28 27 26 24 23 22 21 20 18 16 15 14 13 13 13 14 15 14 12 11 11 11 10 12 12 11 11 11 10 9 8 7 7 7 6 6 6 6 6 7
32 32 31 29 27 25 24 23 22 21 18 17 16 15 15 15 14 14 14 14 12 11 11 11 11 11 12 12 10 9 9 8 7 7 8 8 8 8 7 7 7 7
33 33 33 31 28 27 25 24 24 22 19 18 18 17 17 16 15 14 15 15 13 13 13 12 11 11 10 11 10 9 9 9 8 8 9 8 9 9 9 8 8 8
34 34 34 32 30 28 27 27 26 23 21 19 19 18 17 17 16 16 16 16 13 13 14 13 12 13 11 10 9 8 9 9 8 9 9 9 10 9 9 9 9 9
35 35 34 33 31 29 28 27 27 25 22 20 21 20 18 17 19 18 18 17 14 14 15 14 14 14 12 10 10 9 9 10 9 9 10 10 10 10 9 10 10 9
37 37 35 34 32 30 29 28 27 26 24 22 22 23 22 22 21 20 20 19 16 15 16 15 14 12 11 12 12 10 10 10 11 12 13 12 11 11 11 10 10 11
37 37 36 34 32 31 31 30 28 27 26 25 26 26 25 25 25 23 22 21 19 18 18 17 15 12 11 13 13 11 10 10 12 13 13 13 12 12 11 11 11 12
39 38 37 35 33 32 32 29 27 28 28 28 29 28 27 28 29 27 26 24 22 21 20 18 17 15 14 14 13 12 12 12 13 13 13 13 13 12 11 11 12 12
40 39 38 36 35 33 32 30 28 30 32 31 30 30 30 32 32 30 29 27 25 25 24 21 19 18 17 16 14 14 13 13 14 15 14 14 14 13 12 12 13 13
41 40 40 38 35 33 34 35 33 34 36 35 33 33 34 36 35 33 32 30 27 27 27 23 21 19 18 17 15 14 13 14 16 16 15 15 15 15 14 14 14 14
42 41 41 40 37 35 36 39 37 36 38 38 38 37 37 38 37 35 35 33 30 29 28 26 23 21 18 17 16 14 14 16 18 18 16 16 16 15 15 14 14 15
42 41 42 43 40 38 39 41 39 37 38 39 40 40 40 40 39 38 38 36 32 31 30 28 25 21 19 18 18 17 17 17 19 19 17 17 16 16 15 14 14 15
40 40 42 43 42 41 41 41 40 40 38 37 39 42 42 42 44 43 42 38 34 32 31 30 28 24 20 19 20 19 17 18 20 20 19 17 16 16 15 14 15 15
38 38 40 42 42 42 42 41 42 41 40 39 41 43 42 43 45 46 44 40 36 34 33 32 31 27 21 20 21 20 17 18 21 21 19 18 16 16 16 15 15 15
37 37 38 40 41 41 41 42 43 42 41 41 44 45 42 42 43 44 43 42 39 36 35 34 34 30 24 20 21 21 19 20 23 22 19 18 16 16 16 15 15 15
37 36 36 38 38 38 39 41 42 42 42 43 45 46 44 42 42 43 43 42 39 37 36 36 36 33 27 22 22 22 21 22 23 22 20 18 17 16 16 15 14 14
38 36 36 36 36 35 35 36 38 41 42 42 43 45 45 44 44 43 44 42 39 37 37 38 37 34 30 25 22 22 23 23 23 21 19 18 16 15 15 14 13 13
37 36 35 34 33 31 30 30 32 35 37 38 40 42 44 45 44 44 43 41 39 38 38 38 36 33 30 27 23 22 23 25 24 21 19 17 15 14 13 13 14 16
35 33 32 31 30 28 26 26 27 28 30 32 35 38 42 43 43 42 41 39 39 39 38 38 36 34 31 28 25 22 23 25 26 24 22 18 16 15 14 13 16 18
31 29 28 26 24 23 22 22 22 23 25 28 32 36 39 40 40 41 40 40 40 40 39 38 37 33 31 29 26 22 21 24 26 27 24 20 18 17 16 16 18 20
25 25 24 22 19 18 19 18 18 20 22 25 29 34 36 36 36 38 39 40 41 40 40 39 36 29 27 27 25 22 21 24 27 28 26 23 20 19 18 18 19 20
22 21 21 19 17 16 17 16 15 16 17 19 23 28 32 32 32 35 37 39 41 41 40 39 34 27 24 25 24 21 20 23 27 28 27 25 22 20 20 20 21 22
20 18 18 18 17 16 15 14 12 13 14 15 16 19 24 27 28 31 34 37 39 39 39 38 34 29 26 25 24 21 20 22 26 27 27 25 23 21 22 22 22 21
18 17 17 17 17 16 15 14 13 12 12 13 13 15 16 18 20 22 28 34 35 34 34 33 29 26 25 25 24 22 20 21 25 25 25 24 24 22 22 21 20 20
19 19 19 18 17 16 16 15 13 12 12 13 15 15 15 16 16 17 24 33 34 32 32 31 29 26 25 26 29 28 24 22 24 24 23 22 22 20 19 19 19 20

ECMWFNIL_850_spd_024.txt.gz
Wind_Speed
32 30 29 28 26 24 23 23 21 20 20 20 19 19 18 17 15 16 16 13 13 16 17 16 14 13 14 16 19 18 14 12 11 9 9 10 10 9 9 9 7 8
32 31 30 30 28 26 24 23 22 22 22 20 20 19 19 17 17 18 17 15 15 15 15 14 12 13 14 14 16 19 18 14 14 11 9 10 11 10 10 8 6 6
33 32 32 31 30 28 27 25 24 23 22 22 21 20 18 17 17 19 18 17 17 16 15 14 12 12 14 14 14 17 17 14 15 14 10 10 11 11 10 8 7 6
34 33 33 32 31 30 29 27 26 25 24 23 23 21 20 18 17 19 20 21 19 17 15 15 13 12 13 15 15 16 16 14 14 14 13 11 11 11 12 11 12 12
35 34 33 33 32 31 31 30 29 28 26 25 25 24 23 21 21 22 23 23 21 19 17 16 14 13 14 16 16 16 17 15 14 14 15 14 13 12 13 13 14 15
36 35 34 33 32 31 32 32 32 31 29 27 26 26 25 25 26 26 26 25 23 21 20 18 16 15 15 17 18 18 17 15 14 14 14 14 14 14 12 11 11 12
37 36 35 34 33 32 33 34 34 32 31 29 28 28 28 28 28 28 27 26 25 23 22 19 17 16 16 18 19 18 17 16 14 13 12 11 12 13 13 13 14 13
38 37 36 35 34 33 34 35 35 34 32 30 30 30 31 31 30 29 28 27 26 24 23 21 18 18 18 18 19 19 17 16 16 15 14 14 12 12 13 15 16 15
38 37 37 36 36 35 35 36 36 35 34 33 32 32 33 33 32 30 29 29 28 26 25 24 21 20 20 19 18 18 17 17 17 17 18 18 15 13 13 14 15 15
39 38 37 37 37 37 37 37 37 37 36 35 34 34 35 35 34 32 31 32 31 29 28 27 25 23 22 21 18 17 17 17 17 19 21 21 17 14 14 14 15 15
40 39 38 38 39 39 38 38 38 37 37 36 35 35 36 36 35 34 35 35 34 33 31 29 28 26 25 24 20 17 17 17 18 19 21 21 18 15 14 15 15 15
42 41 41 40 40 39 39 39 38 37 37 37 37 37 38 37 37 37 37 37 37 35 33 31 29 28 27 26 23 19 18 18 20 21 21 21 19 17 16 16 16 16
43 43 43 42 41 39 38 38 39 38 37 37 38 38 39 39 39 39 38 38 38 37 35 33 31 30 29 28 25 21 20 20 22 22 22 23 22 20 18 18 18 18
44 44 44 43 42 40 39 38 38 38 37 37 37 38 39 40 40 39 39 38 39 38 37 35 34 32 30 29 27 24 22 22 23 23 23 23 24 22 20 19 18 17
42 43 43 43 42 41 40 40 39 38 38 38 38 37 37 36 37 39 39 38 38 38 38 37 36 34 32 30 29 27 25 24 24 24 23 24 24 23 20 20 19 18
41 42 43 43 43 42 42 42 40 39 39 39 39 38 36 35 35 37 38 37 38 38 39 39 38 36 34 31 30 29 27 25 25 24 24 24 24 23 21 21 20 20
40 40 41 42 43 43 43 42 41 40 39 39 39 38 37 34 34 36 37 36 37 39 39 39 38 38 36 31 31 31 29 26 25 24 24 25 25 24 23 21 20 20
41 40 40 40 41 42 43 42 41 40 39 38 38 36 35 34 34 35 36 36 36 37 38 38 39 39 36 33 32 32 29 26 25 25 26 26 26 25 24 22 22 21
42 40 39 39 39 40 40 40 40 40 39 38 37 36 34 34 34 36 37 37 36 35 36 37 39 38 35 34 33 32 30 27 25 26 27 27 25 25 24 23 22 21
42 40 39 38 37 37 37 37 38 38 38 37 38 37 36 36 36 36 37 37 37 36 35 35 37 37 34 33 33 33 31 28 25 26 27 25 24 24 25 24 23 23
41 40 38 37 36 35 34 34 34 34 35 35 35 35 35 36 37 37 38 39 39 38 36 35 36 36 34 33 33 33 32 30 26 26 26 25 24 24 24 24 23 24
41 40 39 38 36 34 32 31 31 30 31 30 30 30 32 34 35 36 37 39 38 38 37 35 35 36 34 33 32 32 33 31 28 27 28 29 28 25 23 24 25 25
42 41 40 37 35 33 31 30 30 29 28 28 28 29 29 29 31 32 32 34 36 37 37 36 35 35 35 34 33 32 33 32 27 26 29 32 32 28 25 26 28 28
41 40 38 35 32 31 29 27 27 27 28 28 27 25 22 21 23 23 23 26 29 32 34 34 33 34 35 34 32 30 31 31 28 26 27 30 32 32 29 29 31 30
39 37 35 33 30 28 24 22 21 22 23 23 21 19 18 17 18 18 18 20 21 22 24 26 28 31 33 32 30 29 29 29 27 26 25 26 29 32 33 33 34 31
36 34 32 30 27 24 23 21 20 18 19 19 18 18 18 18 18 17 18 19 18 17 18 20 23 26 28 28 28 27 26 25 25 25 24 24 27 33 36 35 29 23

ECMWFNIL_850_spd_027.txt.gz
Wind_Speed
36 34 32 31 31 31 29 28 28 28 27 26 24 23 23 22 20 18 16 14 15 16 17 16 15 14 14 17 20 19 15 13 11 11 14 16 16 16 16 17 17 16
37 36 34 32 32 32 32 31 30 29 27 25 23 22 23 23 21 19 18 16 16 17 18 18 16 14 14 18 21 20 17 15 13 13 15 16 17 18 17 17 18 18
38 37 36 34 33 33 33 33 32 30 28 25 24 24 24 24 22 21 20 18 18 18 18 18 16 15 15 18 21 22 19 17 15 15 14 15 17 19 18 17 17 16
39 38 37 35 34 34 34 34 34 32 29 27 26 25 25 25 24 23 22 21 21 20 19 18 16 16 16 17 21 23 22 20 18 17 16 16 17 19 18 16 16 15
40 39 37 37 36 35 35 35 35 33 31 29 28 27 26 25 25 25 25 24 23 22 20 18 16 16 16 16 19 22 24 22 20 20 20 17 17 19 19 18 18 17
42 40 39 38 37 37 37 37 36 34 33 31 30 29 28 26 26 26 27 26 24 24 23 20 17 16 16 17 18 20 22 22 22 23 22 20 18 19 19 21 22 21
43 42 40 39 38 38 38 38 37 36 34 33 32 31 30 29 28 28 28 27 26 25 25 22 18 17 18 18 19 20 21 21 22 23 23 22 20 20 20 21 22 23
45 43 42 40 39 39 39 38 38 37 36 35 35 33 31 31 30 29 29 28 27 26 26 24 21 20 20 20 21 21 21 21 22 23 24 23 22 21 20 20 21 22
45 44 43 42 41 40 40 39 39 39 38 38 37 35 33 32 32 31 30 30 29 28 27 26 25 23 23 23 23 22 22 22 22 23 23 23 23 22 20 21 22 21
46 46 45 44 43 42 41 40 40 40 40 40 39 37 36 34 33 33 32 32 32 31 30 29 29 27 25 25 24 24 24 23 22 23 23 23 23 22 21 22 22 21
48 47 46 45 44 43 42 42 41 41 41 41 40 39 38 37 36 35 35 35 34 34 33 32 31 30 28 27 26 26 25 24 24 24 23 23 23 23 22 22 22 22
49 48 48 47 45 44 43 43 42 42 42 42 42 41 40 38 38 37 37 37 36 36 35 34 34 33 31 29 28 27 27 26 26 26 25 24 25 24 23 23 23 22
51 50 49 48 47 45 44 44 43 43 43 43 42 42 41 41 40 39 39 39 38 37 36 36 36 35 34 32 30 29 29 29 28 27 27 27 27 26 25 24 24 23
52 51 50 49 47 46 45 44 44 44 44 43 43 43 42 42 41 41 40 40 39 38 38 37 38 38 37 35 33 31 30 31 30 29 29 29 29 29 27 26 25 24
52 51 51 49 48 47 46 45 44 44 44 44 43 43 42 41 41 41 41 41 41 40 39 39 40 40 39 37 35 33 32 32 31 30 30 30 31 30 29 28 26 25
52 52 51 50 49 48 46 45 44 44 44 44 44 42 41 40 40 41 41 41 41 41 40 41 41 41 40 39 36 34 33 33 33 32 31 31 31 31 30 28 27 25
52 52 52 50 50 48 47 46 44 43 43 44 43 42 40 38 39 40 41 41 41 41 40 41 41 41 41 40 38 35 33 34 34 32 31 32 32 32 30 29 27 26
51 51 51 51 50 49 48 46 44 43 43 43 43 41 39 38 38 39 39 40 40 40 39 39 39 39 40 40 38 35 33 35 36 33 31 33 34 32 31 30 28 26
49 49 50 50 50 49 48 47 45 44 44 43 42 41 39 38 38 38 38 38 38 38 38 37 37 37 39 39 37 34 32 35 39 36 32 33 34 33 31 30 28 26
49 49 48 48 48 48 48 47 46 45 44 43 42 40 39 39 38 38 38 38 37 37 37 37 37 36 37 37 36 32 30 34 38 37 34 33 33 32 31 30 28 26
51 50 48 47 46 46 46 47 46 45 44 43 41 40 40 39 39 38 38 38 37 37 37 38 38 36 36 35 33 30 28 32 37 37 34 34 33 31 30 29 27 26
53 52 50 48 46 45 45 45 45 45 44 43 42 41 40 39 38 38 38 37 37 37 38 38 37 36 35 33 30 26 26 30 36 36 34 34 33 31 30 28 25 25
54 53 51 48 46 45 44 44 44 44 43 42 42 41 41 40 39 38 37 36 35 37 38 38 37 35 33 31 27 25 24 28 33 35 34 34 34 33 30 27 25 26
54 53 52 50 48 46 44 44 43 42 41 40 40 41 41 41 40 38 37 37 37 37 37 37 35 33 31 29 26 24 25 26 30 32 33 33 34 32 29 26 26 27
54 53 52 51 49 47 45 44 43 40 38 38 38 39 39 39 38 38 38 37 37 36 35 33 31 29 28 27 24 24 25 26 27 29 31 32 34 32 28 27 29 29
54 53 52 51 49 48 46 44 40 37 36 36 36 36 36 35 35 35 35 34 33 32 30 29 27 26 24 23 23 23 23 25 26 26 27 30 32 30 26 27 30 32

ECMWFNIL_850_spd_030.txt.gz
Wind_Speed
40 39 38 36 36 35 34 33 31 30 30 30 30 28 25 24 23 20 19 18 17 17 17 16 15 15 16 16 16 16 16 16 15 14 16 18 18 19 19 19 19 18
41 40 39 38 37 36 36 34 33 32 31 30 30 29 26 25 24 22 20 19 18 18 18 18 17 17 18 18 17 18 17 17 16 15 16 18 18 19 19 21 22 21
43 41 41 40 39 38 36 35 35 33 32 31 30 29 27 26 25 23 22 21 20 19 19 18 18 18 19 19 18 19 19 18 17 16 16 17 19 20 21 22 23 23
44 43 42 41 40 39 37 36 36 35 34 32 31 29 28 27 26 25 25 24 22 21 20 19 18 19 21 20 20 20 20 20 18 17 16 17 19 21 22 23 23 24
44 44 43 42 41 40 39 37 37 36 35 34 32 31 30 28 28 28 27 26 25 24 22 20 19 20 21 22 22 21 21 21 20 20 19 18 19 21 23 24 24 24
43 43 43 43 42 41 41 40 38 37 36 35 34 33 32 30 29 29 29 29 28 26 24 22 20 21 22 23 23 23 22 22 21 21 21 20 20 22 23 24 25 25
42 43 43 44 43 43 42 41 40 38 37 36 35 35 33 32 31 30 30 30 29 28 26 24 22 23 24 24 25 25 24 23 23 22 22 22 22 23 24 25 25 25
40 41 43 44 44 44 43 43 42 40 38 38 37 36 35 34 33 32 31 31 31 30 28 26 24 24 25 25 25 26 26 25 25 24 23 23 23 24 25 25 26 26
39 40 42 43 44 45 44 44 43 42 40 40 39 38 37 36 35 34 33 32 32 32 30 28 27 26 27 27 26 26 27 27 26 26 25 24 25 26 26 27 27 27
40 39 41 43 45 46 46 45 44 44 42 41 40 39 39 38 37 35 35 34 34 34 33 31 30 29 29 30 28 27 26 27 27 27 27 26 26 26 27 28 28 27
42 40 41 43 45 46 46 46 45 45 44 43 42 41 40 39 38 38 37 37 37 36 35 33 32 31 31 31 30 29 27 27 28 28 29 28 27 27 29 29 29 28
45 42 41 42 44 46 47 47 47 46 46 44 43 42 42 41 40 40 40 40 39 38 37 36 34 33 32 32 31 30 29 28 28 29 30 30 29 29 30 30 30 29
47 44 42 42 43 45 46 47 48 48 47 46 45 44 43 43 42 42 41 41 41 39 38 37 36 35 34 33 33 32 30 30 30 30 31 31 30 30 31 31 31 31
49 46 43 42 42 44 46 48 49 49 49 48 46 45 45 44 43 42 42 42 42 41 40 39 38 38 37 36 36 34 33 32 31 31 31 32 32 31 31 31 32 32
49 47 46 44 43 44 46 48 49 50 50 49 48 48 46 45 44 44 43 43 43 43 42 41 41 41 40 39 38 36 35 33 32 32 31 32 33 33 32 31 32 33
50 49 48 47 46 46 46 48 49 50 50 50 50 49 48 46 46 45 44 44 44 44 44 44 44 43 42 41 40 38 36 34 33 32 31 32 34 34 33 32 32 33
50 50 49 49 48 47 47 48 49 50 51 51 50 50 48 48 47 46 46 45 45 45 45 45 45 44 43 42 41 39 37 35 34 32 32 33 34 34 33 33 33 33
51 51 51 51 50 49 48 49 49 50 51 51 51 50 48 48 47 47 46 45 45 46 46 46 45 44 43 43 41 40 37 35 33 32 32 34 35 33 32 32 33 33
51 51 51 51 51 50 49 49 50 51 52 52 51 50 48 48 47 47 46 45 45 45 45 44 43 42 43 43 41 39 37 34 32 32 32 34 35 34 32 31 31 32
51 51 52 52 51 50 50 50 52 52 52 52 51 50 49 49 48 47 46 45 44 44 43 42 41 41 41 41 40 37 35 32 31 31 32 34 35 34 33 32 31 32
51 51 51 51 50 50 50 51 52 52 52 51 51 50 50 49 47 46 45 44 43 42 42 40 39 39 41 40 38 35 31 30 30 31 31 33 34 34 33 32 32 32
52 51 51 50 49 49 50 50 51 52 52 51 51 50 49 48 47 45 44 43 42 42 40 38 38 40 40 39 35 32 29 28 29 30 30 31 33 33 32 31 31 32
52 51 50 50 49 49 49 50 50 51 51 50 50 50 49 48 47 45 44 43 42 41 39 38 39 39 39 37 33 30 28 27 27 29 30 30 31 31 31 31 31 31
54 52 51 50 49 49 49 49 49 49 49 49 49 49 49 47 46 45 44 43 42 41 39 39 39 38 37 34 31 28 27 26 25 27 28 29 30 31 32 32 31 30
56 53 52 51 50 49 48 48 48 47 47 47 47 47 47 46 45 44 44 43 41 41 40 39 38 37 35 32 28 26 25 23 23 25 27 28 29 31 33 32 30 29
58 55 53 52 51 49 48 47 46 46 46 45 44 45 45 44 44 44 43 42 41 40 39 38 36 34 32 29 26 23 22 21 22 24 25 26 26 28 30 30 29 29

ECMWFNIL_850_spd_033.txt.gz
Wind_Speed
40 39 40 40 39 37 36 35 35 34 33 32 30 28 27 25 25 24 24 23 22 22 22 21 20 18 17 16 16 16 16 16 17 17 16 16 17 18 19 18 17 18
42 40 39 39 40 39 37 36 36 35 34 32 31 29 28 26 25 24 24 24 23 22 22 21 21 19 18 18 17 17 17 18 19 18 17 16 17 19 19 19 19 19
44 42 40 38 39 39 39 38 37 37 35 33 31 30 29 28 26 25 25 25 24 23 22 22 21 20 20 19 19 18 18 19 19 19 18 17 17 18 19 20 20 21
45 44 41 38 37 38 39 39 38 38 38 36 33 31 30 29 28 27 26 26 25 24 24 23 22 21 21 21 21 20 20 19 19 19 19 19 18 19 20 21 21 22
45 44 42 39 37 37 39 40 40 39 39 38 35 33 31 31 30 29 28 27 27 26 25 25 24 23 22 22 22 22 22 21 20 20 21 20 20 20 21 22 23 24
46 44 43 41 38 38 39 41 41 41 40 39 37 36 34 33 31 30 29 29 28 28 27 27 26 25 24 24 24 24 23 23 21 21 22 22 22 22 22 23 24 25
48 46 44 42 40 39 40 41 41 42 41 40 39 38 36 35 34 32 31 30 30 29 29 29 28 27 26 25 25 25 25 24 24 23 23 23 23 23 23 23 24 25
48 46 44 43 41 41 41 41 42 42 42 42 41 40 38 37 36 35 33 32 32 31 30 30 30 29 28 27 26 26 26 26 25 25 24 24 25 25 25 24 24 25
49 47 45 44 43 42 41 41 42 42 42 43 42 41 40 39 38 37 35 34 33 32 32 31 32 32 31 29 28 27 27 27 26 26 25 25 26 26 26 26 26 26
50 48 47 45 44 43 42 41 42 42 43 43 42 42 41 40 39 38 37 36 35 34 33 33 33 33 33 32 30 28 28 28 27 27 26 26 27 27 28 27 27 27
51 50 48 47 45 44 43 41 41 42 43 43 43 43 42 41 40 39 39 38 37 36 35 34 34 34 34 33 31 30 29 29 29 28 27 27 28 28 29 29 29 29
53 51 50 48 46 45 43 42 41 42 42 43 43 43 42 42 41 41 40 39 39 38 37 36 35 35 35 34 33 31 30 31 31 30 29 29 29 29 29 30 30 30
53 52 50 48 46 44 44 43 42 42 42 42 43 42 42 42 42 42 41 40 40 40 39 38 37 36 36 36 34 33 32 32 32 32 31 30 29 30 30 31 32 31
54 52 51 49 46 44 44 43 43 43 42 42 43 43 43 42 42 42 41 41 41 41 41 39 39 38 38 37 36 35 34 33 33 33 32 31 30 30 30 31 32 31
54 53 51 50 48 46 45 44 44 43 43 43 43 43 43 42 42 42 42 42 42 42 42 41 41 40 40 39 38 37 35 34 34 33 33 32 31 31 30 31 31 31
54 53 52 51 50 48 47 45 44 44 44 44 43 43 43 42 42 42 43 43 43 43 43 43 43 42 41 40 40 39 37 36 35 34 33 32 32 31 31 31 30 30
54 53 52 52 51 50 49 47 45 44 44 44 44 44 43 43 43 43 43 43 43 43 44 44 44 43 42 41 41 40 38 37 36 35 33 33 32 32 32 32 30 29
54 53 53 52 52 51 50 48 46 45 45 45 45 45 44 43 43 44 43 43 43 44 44 44 44 43 43 42 41 40 38 37 36 35 34 33 33 32 32 32 31 29
54 53 53 52 52 51 50 49 48 47 46 46 46 46 45 44 44 43 43 44 44 45 44 44 44 43 43 42 41 40 38 36 36 35 34 34 33 31 31 33 32 29
53 53 53 52 52 52 51 50 50 48 47 47 46 46 46 45 45 44 43 44 44 44 43 43 43 43 43 42 41 39 36 35 35 35 34 34 32 31 29 30 31 29
53 53 53 52 52 52 52 51 50 49 48 47 47 47 46 45 45 44 43 44 44 43 43 43 43 43 43 42 41 38 35 33 33 34 34 33 32 31 28 27 28 29
54 53 53 53 52 52 52 52 51 50 49 48 48 48 47 47 46 45 44 44 43 43 43 43 43 43 42 41 40 36 33 32 32 33 34 34 32 31 29 26 26 27
54 53 53 53 53 53 53 52 51 50 49 49 49 49 48 48 48 46 45 44 43 42 42 42 42 42 41 40 37 33 31 31 31 32 33 33 31 29 28 28 27 26
54 54 53 53 53 54 54 52 51 51 50 50 50 49 49 48 47 46 45 43 43 42 41 41 41 40 38 37 34 31 30 30 30 31 32 31 30 28 27 27 27 26
54 54 54 53 54 54 53 52 51 50 50 50 50 49 48 47 46 46 45 44 43 42 40 40 40 38 36 35 31 29 29 30 30 30 29 28 27 27 26 24 23 24
55 55 54 54 54 54 53 52 51 51 50 50 49 49 48 46 45 45 45 44 43 42 41 40 38 36 35 33 30 28 29 29 29 28 26 24 24 24 24 22 22 24

ECMWFNIL_850_spd_036.txt.gz
Wind_Speed
39 37 36 36 36 35 33 32 31 31 31 31 31 30 29 28 26 26 26 25 25 22 20 19 20 20 19 18 18 17 16 16 15 15 16 16 16 16 16 15 15 15
42 40 38 37 36 35 34 32 31 31 31 31 31 31 30 29 27 26 26 25 24 22 20 19 20 20 20 19 19 18 17 16 16 16 16 16 16 17 17 16 16 16
43 42 41 39 37 35 34 33 32 31 31 31 31 31 31 30 28 27 26 25 24 22 20 20 20 21 20 20 20 19 18 16 15 16 16 16 15 16 17 16 15 16
45 44 43 41 38 35 34 34 33 32 32 32 32 32 32 31 30 29 28 26 24 22 21 21 20 21 21 21 21 20 19 17 15 16 17 17 16 16 16 16 15 16
45 44 43 42 39 37 36 36 35 33 33 33 33 33 32 31 30 30 29 28 25 24 23 22 21 21 21 22 22 22 21 19 17 17 19 18 17 17 17 16 16 17
47 46 45 43 41 39 38 37 36 34 33 33 33 34 33 33 32 31 30 29 27 25 24 23 22 22 22 23 23 23 22 21 19 19 20 19 18 18 18 17 17 17
48 47 46 45 43 41 40 38 37 35 34 33 34 34 34 34 33 32 31 30 29 27 26 24 24 23 24 24 24 24 23 22 22 21 21 20 20 20 19 19 19 18
49 48 47 46 44 43 42 40 38 37 35 35 35 35 35 34 33 32 32 31 30 28 27 26 25 24 25 26 26 26 25 24 24 23 22 22 22 22 21 20 20 20
50 49 48 47 46 45 43 41 40 38 37 36 35 35 35 35 34 33 33 32 31 30 29 28 27 26 26 27 28 28 27 26 25 24 24 24 23 23 22 22 21 22
52 50 50 49 48 46 44 42 41 39 38 38 37 35 35 36 35 35 34 34 33 33 32 30 29 28 28 29 29 29 29 28 26 25 25 25 24 24 23 23 23 22
53 52 51 51 49 48 46 44 42 41 39 39 38 37 36 36 36 36 36 35 35 34 34 33 31 30 29 30 30 30 30 29 28 27 26 26 26 25 25 24 24 23
54 53 52 52 50 48 47 45 43 42 40 40 39 38 37 37 37 38 37 37 36 35 35 34 33 32 31 31 30 30 30 30 30 29 28 27 26 26 26 25 25 24
54 54 53 51 50 48 46 45 43 42 41 40 40 39 39 38 38 39 38 37 37 36 36 35 35 34 33 32 31 30 29 30 31 31 30 29 27 27 27 27 26 25
54 53 52 51 50 48 46 45 43 42 41 40 40 40 40 40 39 39 39 38 38 38 38 37 36 36 35 34 33 31 30 30 30 32 32 31 29 28 28 28 27 25
54 54 53 52 50 49 47 46 44 42 41 40 40 40 40 40 40 39 39 39 40 40 39 39 39 38 36 35 34 32 31 31 30 31 31 31 30 29 28 28 27 26
54 54 53 53 52 50 48 47 45 44 42 41 40 40 40 40 40 40 40 41 41 41 41 41 41 39 37 35 34 32 32 31 30 30 30 31 31 31 29 28 26 26
54 54 54 53 52 51 49 48 46 45 44 42 41 40 40 41 41 41 42 42 42 42 42 42 41 39 37 36 34 33 32 32 31 30 30 31 31 31 30 28 27 26
54 54 54 53 53 51 50 48 47 46 45 44 43 42 41 41 42 43 43 42 43 43 43 43 41 38 37 37 35 33 32 32 31 31 30 30 30 30 29 28 27 27
54 53 53 53 53 52 50 49 48 47 46 45 45 43 42 43 43 43 43 43 44 44 44 43 41 38 38 38 36 34 32 31 31 31 30 29 29 29 28 28 27 27
53 53 53 53 52 51 51 50 50 49 47 46 46 45 45 45 44 44 44 44 44 44 45 44 41 39 39 39 37 34 32 31 31 30 30 29 28 28 27 27 26 26
53 53 53 53 52 51 51 51 51 50 49 48 47 47 47 46 45 44 45 45 45 44 45 44 42 40 40 40 38 35 32 32 31 30 29 28 27 26 25 25 25 25
53 53 53 52 51 51 51 51 51 51 50 49 48 48 48 47 47 46 46 45 45 45 45 45 43 42 41 41 39 35 33 32 31 30 29 27 25 24 23 23 24 25
53 53 53 52 51 51 51 51 51 51 50 49 49 49 49 49 49 48 47 46 46 46 46 45 44 43 42 41 39 36 34 33 31 29 28 26 23 23 23 23 24 24
52 52 52 51 51 52 51 51 50 51 50 49 49 49 49 49 49 49 48 48 47 47 46 45 44 43 42 41 39 37 35 32 29 28 27 25 23 23 23 23 23 22
50 50 50 51 51 51 51 50 49 50 49 49 49 49 48 48 49 49 49 49 48 47 46 46 45 44 43 42 40 37 34 31 28 27 26 25 24 23 22 22 22 22
48 49 49 50 50 50 49 49 48 48 48 48 48 49 49 48 48 49 50 50 49 48 48 47 46 46 45 43 40 37 34 30 29 28 26 24 23 22 21 21 22 22

ECMWFNIL_850_spd_042.txt.gz
Wind_Speed
39 38 39 39 38 37 36 35 34 32 31 30 29 28 27 26 25 24 24 24 23 21 20 20 19 17 15 14 14 14 13 11 10 10 10 11 12 13 14 14 14 13
39 38 40 40 40 39 38 37 36 34 33 31 29 29 28 27 27 26 25 24 23 22 21 20 20 18 16 16 16 16 15 13 11 11 11 12 13 14 15 14 14 15
41 40 40 40 40 40 38 37 37 35 33 32 30 30 29 29 28 28 27 26 24 23 22 21 20 19 18 17 18 17 16 15 13 12 12 13 14 15 15 15 14 15
43 41 41 41 40 39 37 37 36 34 33 32 31 30 30 30 30 30 29 28 27 25 24 22 21 20 19 19 20 19 18 17 16 14 13 14 16 16 16 16 16 15
45 43 42 41 40 38 37 36 35 34 33 31 30 30 30 31 30 31 31 31 29 27 26 24 23 22 21 21 21 21 19 18 17 15 15 17 17 17 17 17 18 17
46 45 43 42 40 38 38 38 36 35 33 31 30 29 30 31 31 31 32 32 31 29 28 27 25 24 23 23 23 22 21 21 19 17 17 19 19 18 18 19 19 19
47 46 45 43 42 40 39 39 38 36 35 33 32 30 30 31 32 32 32 33 32 30 29 28 27 26 25 24 24 24 23 24 22 20 20 21 20 20 20 20 20 20
46 46 46 45 43 42 42 41 39 38 36 35 34 33 31 31 32 33 33 34 33 32 31 30 29 28 27 26 26 25 25 25 25 24 24 23 22 22 22 22 22 21
46 46 46 45 45 44 44 42 41 39 38 37 36 35 33 33 32 33 35 35 35 34 33 32 31 29 28 28 28 27 26 26 26 26 26 25 24 24 24 23 23 23
45 45 46 46 46 46 45 43 42 40 39 38 37 36 36 35 34 34 36 37 37 37 35 34 33 32 31 30 30 29 28 27 27 28 28 27 26 25 25 25 25 24
44 44 45 45 46 46 46 45 43 42 41 39 38 38 38 37 36 36 37 38 39 39 38 37 35 34 33 32 31 31 30 29 29 29 29 29 27 26 26 26 26 25
44 44 44 43 43 44 45 44 43 43 42 41 39 39 39 39 39 38 38 39 40 40 39 39 37 36 35 34 33 33 32 31 31 31 31 31 30 29 28 28 27 26
45 44 43 42 42 42 43 43 42 42 42 41 39 39 39 40 40 40 39 40 40 40 40 40 39 38 38 37 35 35 34 33 33 33 32 32 32 31 30 30 29 28
47 45 43 43 43 42 42 42 42 41 42 41 40 39 40 40 41 41 40 39 40 40 40 40 40 40 40 39 38 37 37 36 35 34 34 34 34 33 32 32 31 31
48 47 45 45 45 45 44 43 43 43 43 42 42 41 40 40 41 41 40 40 39 40 40 40 41 42 43 42 40 40 39 38 37 36 35 35 35 35 34 34 33 33
48 47 46 46 47 47 46 45 45 46 45 45 44 43 41 41 41 42 42 41 40 40 41 41 42 44 44 44 42 41 40 40 39 38 37 37 37 36 36 36 35 34
48 47 47 47 47 47 47 46 47 47 47 47 46 45 44 43 43 43 44 43 43 41 41 42 43 44 46 45 44 42 42 41 41 40 39 39 39 39 38 37 36 35
47 47 47 47 47 47 47 46 47 48 48 48 48 47 45 45 45 45 44 45 45 44 43 43 44 45 46 46 45 44 43 42 42 42 41 40 40 40 39 38 37 36
45 45 46 47 47 47 47 46 46 48 49 49 49 47 46 46 46 45 45 45 45 46 45 45 45 45 46 46 46 45 44 43 43 43 43 43 42 41 40 39 38 38
44 44 45 46 46 46 46 47 47 47 48 49 49 49 49 48 48 47 46 45 45 46 46 46 47 47 46 46 46 45 44 44 43 43 44 44 44 43 42 41 40 39
42 43 44 45 46 47 47 48 48 48 48 49 49 49 49 49 49 48 47 46 46 46 46 47 48 48 47 47 46 45 44 43 42 42 43 45 46 45 44 42 41 41
41 41 43 44 46 47 48 48 48 48 48 49 49 49 49 49 48 48 47 47 47 47 47 48 48 48 48 47 46 44 43 42 42 43 43 46 47 46 45 43 41 41
42 42 43 44 46 47 47 47 47 47 47 48 48 48 49 49 49 48 47 47 47 47 48 49 48 48 49 47 46 44 43 43 43 43 45 46 46 46 46 44 41 39
42 43 44 44 45 45 45 45 45 46 46 47 47 47 47 47 47 47 47 47 47 47 48 49 49 50 50 49 47 45 44 44 44 44 45 45 45 46 44 40 38 39
41 41 42 42 42 41 42 43 44 45 45 45 46 46 46 45 44 45 46 47 47 47 47 48 49 50 51 50 49 47 45 45 44 44 45 45 45 45 40 35 36 39
40 39 39 40 40 40 41 42 42 43 43 44 45 44 44 44 43 44 45 46 45 45 46 47 48 48 50 51 51 49 47 46 46 46 46 45 46 45 42 38 35 35

ECMWFNIL_850_spd_045.txt.gz
Wind_Speed
40 39 39 38 37 35 34 33 34 33 31 29 28 27 27 28 26 23 22 23 22 22 21 20 19 18 17 16 15 15 15 14 14 13 12 13 13 13 15 16 15 14
42 40 40 39 38 37 36 35 35 34 33 31 29 26 26 28 28 27 26 26 25 22 20 21 20 19 19 18 18 17 17 17 16 13 12 14 15 15 15 16 16 17
43 42 42 41 40 39 37 35 35 36 35 33 31 29 27 27 28 29 29 28 27 24 21 21 21 20 20 20 19 19 18 19 19 16 14 15 15 16 16 16 17 18
44 43 43 42 41 40 38 35 35 37 36 35 34 32 30 27 27 29 30 30 29 27 24 23 22 21 21 21 21 20 19 20 20 18 17 16 15 16 17 17 17 18
45 44 43 43 42 40 39 37 36 37 37 37 35 34 33 31 30 29 30 31 30 30 28 26 25 23 22 22 22 21 21 21 21 20 19 16 15 17 18 18 19 19
47 46 45 44 43 42 41 40 39 38 38 38 37 36 35 34 33 32 32 32 31 31 30 29 28 27 26 25 23 23 23 23 22 23 22 19 18 18 19 20 21 21
48 47 46 45 45 44 43 42 41 40 39 38 37 37 36 35 35 35 34 33 33 32 31 30 30 30 28 28 26 24 24 24 24 25 25 22 20 20 20 21 22 23
49 48 47 47 46 45 44 43 42 41 40 38 38 37 37 36 35 35 35 34 34 34 33 31 32 32 31 30 29 26 25 25 25 27 27 24 23 22 22 22 23 24
50 49 49 48 47 47 45 44 43 42 41 40 39 37 37 37 36 36 35 34 34 34 34 33 33 33 33 32 31 29 27 26 26 27 28 28 26 26 24 24 24 25
50 50 50 49 49 48 46 45 43 41 41 42 40 38 36 36 37 37 35 35 34 34 34 35 34 34 34 33 32 32 29 28 28 28 29 29 29 28 27 26 26 26
50 51 51 51 50 49 47 46 44 40 40 41 42 40 36 34 36 38 37 36 36 34 34 36 36 36 36 34 33 33 31 30 29 30 30 30 30 30 29 29 28 28
50 51 51 51 50 49 47 45 43 40 37 38 42 42 38 34 34 37 39 38 37 36 35 36 38 37 37 37 35 34 34 32 31 31 31 32 32 31 31 31 30 30
48 49 49 49 49 48 46 43 41 39 37 36 38 40 40 37 34 35 39 39 38 38 37 37 38 39 39 39 38 37 36 35 33 33 33 34 34 33 32 32 33 32
47 47 46 46 46 46 45 42 40 39 38 36 35 37 40 39 35 34 37 40 40 39 39 39 39 41 41 41 41 40 39 38 36 35 35 35 36 35 34 34 34 34
46 45 44 44 43 44 44 42 41 40 39 38 37 36 37 38 37 35 36 40 42 41 40 41 41 43 44 43 43 42 41 40 39 38 37 37 37 37 36 36 35 35
44 44 43 42 43 43 43 42 42 41 40 39 39 38 38 38 38 37 36 38 42 42 42 42 43 45 46 46 45 44 43 42 42 41 40 39 38 38 38 38 37 35
45 45 44 43 43 43 43 42 42 42 41 41 40 40 39 39 39 38 37 36 39 43 43 43 44 45 46 47 46 45 45 44 43 43 43 42 41 40 40 39 39 37
46 46 46 45 44 44 44 43 42 43 43 42 42 42 41 41 41 41 41 38 38 42 44 44 45 46 46 46 46 46 45 44 44 44 44 44 44 43 43 42 41 40
45 46 47 46 46 46 45 44 44 44 45 45 45 44 44 44 44 45 44 42 41 42 44 45 45 46 46 45 45 45 45 45 45 45 45 46 46 46 45 45 44 43
45 45 46 46 46 46 45 45 45 45 46 47 47 46 46 47 47 47 46 46 45 44 44 46 46 46 47 46 45 45 44 44 45 46 46 47 47 48 47 47 47 46
46 45 45 45 45 45 45 45 44 44 45 45 45 46 47 47 48 48 48 47 48 47 46 47 47 46 47 48 46 45 44 44 44 46 47 48 48 49 49 48 49 48
46 45 44 44 44 44 45 44 44 44 44 44 43 43 44 45 46 48 47 47 48 48 48 49 49 47 48 49 48 46 45 45 45 46 47 48 49 49 49 49 50 50
45 44 43 43 44 44 44 43 43 43 43 43 43 42 42 44 44 44 45 46 47 48 49 50 50 48 48 49 49 48 47 46 47 48 48 49 50 49 49 50 51 51
43 43 42 43 43 43 42 42 42 42 42 42 42 42 41 40 39 38 40 43 45 47 47 48 48 48 48 48 48 48 47 47 47 48 49 51 51 50 51 51 51 51
41 41 41 42 42 41 41 41 41 41 40 40 41 41 40 37 35 34 35 37 40 42 42 44 44 44 44 46 47 47 47 47 47 47 49 51 51 52 52 53 52 51
39 39 39 40 40 40 39 40 39 38 38 38 38 37 37 35 34 33 33 32 33 34 35 38 41 41 42 44 45 45 46 46 47 48 50 51 51 52 52 54 54 47

ECMWFNIL_850_spd_048.txt.gz
Wind_Speed
38 37 36 35 34 34 33 32 31 30 29 27 26 26 26 25 24 23 22 21 21 20 21 21 19 18 17 17 16 16 17 16 14 13 13 15 14 11 15 19 18 16
39 38 37 36 36 35 34 34 33 32 31 29 28 27 26 25 25 24 23 22 22 20 20 21 21 19 18 18 18 17 18 18 16 15 15 15 16 14 15 18 18 19
40 39 39 38 37 37 36 35 34 33 32 31 30 29 27 25 25 25 25 24 24 22 21 21 21 20 20 20 20 19 19 19 18 17 17 17 17 16 16 17 17 18
42 41 40 40 39 39 37 36 35 35 34 32 32 31 28 26 25 26 26 26 27 25 23 22 21 20 21 21 22 21 20 20 20 19 19 20 19 18 17 18 18 17
43 42 42 41 41 40 39 38 37 37 36 34 33 32 31 29 27 26 26 27 28 27 26 24 22 21 21 22 23 23 23 22 22 21 22 22 22 21 19 19 20 19
44 43 43 42 42 41 40 39 39 38 37 36 34 33 32 31 30 28 27 28 28 28 28 27 26 24 23 23 24 25 25 24 24 23 23 24 25 24 22 21 22 22
45 45 44 43 43 42 41 40 40 39 38 37 35 34 33 32 32 31 30 29 29 29 29 29 28 27 26 26 26 26 26 25 25 25 25 26 26 26 25 24 23 24
46 45 45 45 44 43 43 42 41 40 39 37 35 34 34 33 33 33 32 31 30 29 29 29 29 28 28 29 28 28 27 27 27 27 27 27 28 28 27 26 24 24
47 47 46 46 46 45 45 44 42 41 40 39 37 35 34 34 34 33 33 33 32 31 31 30 30 30 30 30 30 30 30 29 29 29 30 29 29 29 29 28 27 25
48 48 47 47 47 47 46 45 44 43 42 40 39 37 35 35 34 33 33 34 34 33 33 32 32 32 32 32 32 32 32 31 30 30 31 31 31 30 30 30 29 27
49 48 48 48 48 48 47 46 45 44 43 41 40 39 36 35 35 34 34 34 34 35 35 34 34 34 34 34 34 34 34 33 32 31 32 32 32 32 31 31 31 29
50 49 49 48 48 47 47 46 45 44 42 41 41 40 37 36 35 36 35 35 36 36 36 36 36 36 36 36 36 36 35 35 34 33 33 33 34 33 33 32 32 30
49 49 49 48 48 47 45 45 45 43 41 40 40 39 38 37 36 37 37 37 37 37 37 38 37 37 37 37 37 37 36 36 35 35 34 34 34 34 34 33 33 32
47 47 48 48 47 47 45 43 42 42 40 38 37 37 38 37 36 37 37 38 38 38 38 38 38 38 38 38 38 38 37 36 36 36 35 35 35 35 35 35 34 34
45 45 46 47 46 46 46 44 42 41 40 39 38 37 37 36 36 35 36 37 38 38 38 38 39 39 39 39 39 39 39 38 37 37 37 36 36 35 36 36 36 36
43 44 44 45 46 46 46 45 44 42 40 40 40 39 38 36 35 35 35 36 37 37 38 38 39 40 41 41 41 40 40 40 40 40 39 38 37 37 37 36 36 37
43 44 44 44 45 45 45 45 45 44 42 42 41 41 40 39 36 35 36 36 37 38 39 40 41 41 41 41 42 41 41 42 42 41 41 40 40 39 39 38 37 37
43 44 44 44 44 45 45 45 44 45 44 43 43 42 42 41 39 38 38 37 37 39 40 41 42 42 41 41 41 41 42 42 42 42 42 42 41 41 41 40 39 39
43 44 44 44 44 44 44 44 44 45 45 45 44 43 43 42 42 41 40 39 40 40 41 42 42 42 42 41 40 40 41 41 42 43 43 44 44 43 43 43 42 42
43 44 44 44 44 44 44 45 45 45 45 45 44 43 44 44 44 43 42 42 42 42 42 42 42 42 42 41 40 39 39 40 41 43 44 45 45 45 45 45 46 45
43 44 43 44 44 43 44 44 45 44 45 45 44 44 45 46 46 45 45 44 44 44 44 44 44 43 43 42 41 40 39 39 40 41 44 45 46 46 46 46 47 47
43 43 43 44 44 44 44 44 44 44 44 44 45 44 44 45 46 46 46 46 45 45 45 46 46 45 45 45 44 42 41 40 40 42 44 45 46 46 47 47 47 47
43 43 44 44 44 44 45 45 44 44 43 43 44 44 43 44 46 46 46 46 46 46 47 48 47 46 47 47 47 46 44 43 43 43 44 46 47 48 47 47 48 48
43 43 43 44 44 44 44 44 44 44 43 42 43 44 44 44 43 44 45 46 47 47 48 49 49 48 48 48 47 46 45 45 45 44 44 46 48 49 49 49 49 49
42 43 43 44 44 43 43 43 43 42 42 42 42 43 43 42 40 40 42 44 45 46 47 47 48 47 48 48 48 46 45 44 44 43 45 47 48 50 51 50 50 49
41 42 42 42 42 42 41 41 40 40 40 40 40 42 41 40 38 37 37 38 39 41 42 44 44 44 45 46 46 45 44 43 43 44 47 48 48 49 50 50 50 50